Piney Island, NC

3:21 PM EDT on May 23, 2017 (GMT -0400)
Piney Island

Weather History for KNBT - March, 2014

Change the Weather History Date:

Sunday, March 9, 2014

  Actual Average (KMRH) Record (KMRH)
Temperature  
Mean Temperature 55 °F -  
Max Temperature 64 °F 61 °F 78 °F (1974)
Min Temperature 46 °F 40 °F 24 °F (1969)
Degree Days  
Heating Degree Days 10    
Growing Degree Days 5 (Base 50)    
Moisture  
Dew Point 44 °F    
Average Humidity 74    
Maximum Humidity 86    
Minimum Humidity 43    
Precipitation  
Precipitation 0.00 in - - ()
Sea Level Pressure  
Sea Level Pressure 30.04 in    
Wind  
Wind Speed 10 mph (East)    
Max Wind Speed 17 mph    
Max Gust Speed -    
Visibility 9 miles    
Events      
Averages and records for this station are not official NWS values.
T = Trace of Precipitation, MM = Missing Value Source: NWS Daily Summary

Daily Weather History Graph

Daily Weather History Graph

Search for Another Location

Airport or City:

Trip Planner

Search our weather history database for the weather conditions in past years. The results will help you decide how hot, cold, wet, or windy it might be!

Date:

Astronomy

Mar. 09, 2014 Rise Set
Actual Time 7:24 AM EDT 7:08 PM EDT
Civil Twilight 6:59 AM EDT 7:33 PM EDT
Nautical Twilight 6:30 AM EDT 8:03 PM EDT
Astronomical Twilight 6:00 AM EDT 8:32 PM EDT
Moon 1:08 PM EDT (3/9) 3:39 AM EDT (3/9)
Length of Visible Light 12h 34m
Length of Day
11h 43m
First Quarter, 61% of the Moon is Illuminated
Mar 9
First Quarter
Mar 16
Full
Mar 23
Last Quarter
Mar 30
New
Apr 7
First Quarter

Hourly Weather History & Observations

Time (EDT) Temp. Dew Point Humidity Pressure Visibility Wind Dir Wind Speed Gust Speed Precip Events Conditions
12:56 AM 50.0 °F 45.0 °F 83% 30.02 in 10.0 mi SSW 8.1 mph - N/A   Clear
1:56 AM 50.0 °F 46.0 °F 86% 30.01 in 10.0 mi SW 8.1 mph - N/A   Clear
3:56 AM 51.1 °F 46.0 °F 83% 30.00 in 10.0 mi SSW 8.1 mph - N/A   Clear
4:56 AM 51.1 °F 46.0 °F 83% 29.99 in 10.0 mi SSW 8.1 mph - N/A   Clear
5:56 AM 50.0 °F 46.0 °F 86% 29.99 in 10.0 mi SW 8.1 mph - N/A   Clear
6:56 AM 50.0 °F 45.0 °F 83% 29.99 in 10.0 mi West 8.1 mph - N/A   Clear
7:56 AM 51.1 °F 46.0 °F 83% 30.01 in 10.0 mi West 12.7 mph - N/A   Clear
8:56 AM 52.0 °F 46.9 °F 83% 30.03 in 10.0 mi West 12.7 mph - N/A   Clear
9:56 AM 54.0 °F 46.0 °F 75% 30.05 in 10.0 mi West 10.4 mph - N/A   Clear
10:56 AM 55.9 °F 46.0 °F 69% 30.06 in 10.0 mi West 8.1 mph - N/A   Mostly Cloudy
11:56 AM 57.9 °F 46.0 °F 65% 30.06 in 10.0 mi WNW 8.1 mph - N/A   Partly Cloudy
12:56 PM 62.1 °F 43.0 °F 50% 30.05 in 10.0 mi North 12.7 mph - N/A   Clear
1:56 PM 64.0 °F 42.1 °F 45% 30.04 in 10.0 mi North 13.8 mph - N/A   Clear
2:56 PM 64.0 °F 41.0 °F 43% 30.03 in 10.0 mi NNE 11.5 mph - N/A   Clear
3:26 PM 55.0 °F 44.1 °F 67% 30.02 in 10.0 mi East 15.0 mph - N/A   Clear
3:56 PM 55.0 °F 43.0 °F 64% 30.04 in 9.0 mi East 16.1 mph - N/A   Clear
4:56 PM 52.0 °F 43.0 °F 71% 30.03 in 6.0 mi East 17.3 mph - N/A   Haze
5:56 PM 51.1 °F 42.1 °F 71% 30.04 in 6.0 mi East 11.5 mph - N/A   Haze
6:56 PM 48.9 °F 41.0 °F 74% 30.06 in 6.0 mi East 11.5 mph - N/A   Haze
7:56 PM 48.9 °F 42.1 °F 77% 30.06 in 7.0 mi East 8.1 mph - N/A   Clear
8:56 PM 48.0 °F 42.1 °F 80% 30.07 in 7.0 mi ESE 8.1 mph - N/A   Clear
9:56 PM 46.9 °F 42.1 °F 83% 30.09 in 7.0 mi East 5.8 mph - N/A   Clear
10:56 PM 46.9 °F 42.1 °F 83% 30.09 in 7.0 mi East 5.8 mph - N/A   Clear
11:56 PM 46.9 °F 42.1 °F 83% 30.06 in 8.0 mi ENE 8.1 mph - N/A   Clear
12:56 AM 46.9 °F 42.1 °F 83% 30.04 in 8.0 mi East 5.8 mph - N/A   Clear